Time,TemperatureF,DewpointF,PressureIn,WindDirection,WindDirectionDegrees,WindSpeedMPH,WindSpeedGustMPH,Humidity,HourlyPrecipIn,Conditions,Clouds,dailyrainin,SoftwareType,DateUTC
2013-01-16 00:00:00,35.4,35.0,29.90,SSW,202,0.0,-999.0,100,0.06,,,0.00,Rainwise IP-100,2013-01-16 05:00:00,
2013-01-16 00:01:00,35.4,35.0,29.90,SSW,202,0.0,-999.0,100,0.06,,,0.00,Rainwise IP-100,2013-01-16 05:01:00,
2013-01-16 00:03:00,35.4,35.0,29.89,SSW,202,0.0,-999.0,100,0.06,,,0.00,Rainwise IP-100,2013-01-16 05:03:00,
2013-01-16 00:05:00,35.4,35.0,29.88,SSW,202,0.0,-999.0,100,0.06,,,0.00,Rainwise IP-100,2013-01-16 05:05:00,
2013-01-16 00:10:00,35.4,35.0,29.89,SSW,202,0.0,-999.0,100,0.06,,,0.01,Rainwise IP-100,2013-01-16 05:10:00,
2013-01-16 00:15:00,35.4,35.0,29.89,SSW,202,0.0,-999.0,100,0.12,,,0.02,Rainwise IP-100,2013-01-16 05:15:00,
2013-01-16 00:20:00,35.4,35.0,29.88,SSW,202,0.0,-999.0,100,0.12,,,0.03,Rainwise IP-100,2013-01-16 05:20:00,
2013-01-16 00:25:00,35.3,35.0,29.88,SSW,202,0.0,-999.0,100,0.12,,,0.04,Rainwise IP-100,2013-01-16 05:25:00,
2013-01-16 00:30:00,35.2,35.0,29.88,SSW,202,0.0,-999.0,100,0.06,,,0.04,Rainwise IP-100,2013-01-16 05:30:00,
2013-01-16 00:36:00,35.1,35.0,29.88,SSW,202,0.0,-999.0,100,0.00,,,0.04,Rainwise IP-100,2013-01-16 05:36:00,
2013-01-16 00:41:00,35.1,35.0,29.86,SSW,202,0.0,-999.0,100,0.00,,,0.04,Rainwise IP-100,2013-01-16 05:41:00,
2013-01-16 00:46:00,35.0,35.0,29.86,East,90,0.0,-999.0,100,0.06,,,0.05,Rainwise IP-100,2013-01-16 05:46:00,
2013-01-16 00:51:00,35.0,35.0,29.86,East,90,0.0,-999.0,100,0.06,,,0.05,Rainwise IP-100,2013-01-16 05:51:00,
2013-01-16 00:56:00,34.9,35.0,29.86,East,90,0.0,-999.0,100,0.06,,,0.06,Rainwise IP-100,2013-01-16 05:56:00,
2013-01-16 01:01:00,34.9,35.0,29.86,East,90,0.0,-999.0,100,0.06,,,0.06,Rainwise IP-100,2013-01-16 06:01:00,
2013-01-16 01:06:00,34.8,35.0,29.86,SE,135,0.0,-999.0,100,0.00,,,0.06,Rainwise IP-100,2013-01-16 06:06:00,
2013-01-16 01:11:00,34.8,35.0,29.86,South,180,0.0,-999.0,100,0.00,,,0.06,Rainwise IP-100,2013-01-16 06:11:00,
2013-01-16 01:16:00,34.8,35.0,29.87,South,180,0.0,-999.0,100,0.06,,,0.07,Rainwise IP-100,2013-01-16 06:16:00,
2013-01-16 01:21:00,34.8,35.0,29.86,South,180,0.0,-999.0,100,0.06,,,0.07,Rainwise IP-100,2013-01-16 06:21:00,
2013-01-16 01:26:00,34.8,35.0,29.86,East,90,0.0,-999.0,100,0.06,,,0.08,Rainwise IP-100,2013-01-16 06:26:00,
2013-01-16 01:31:00,34.7,35.0,29.86,East,90,0.0,-999.0,100,0.06,,,0.08,Rainwise IP-100,2013-01-16 06:31:00,
2013-01-16 01:37:00,34.7,35.0,29.86,East,90,0.0,-999.0,100,0.00,,,0.08,Rainwise IP-100,2013-01-16 06:37:00,
2013-01-16 01:42:00,34.7,35.0,29.86,East,90,0.0,-999.0,100,0.00,,,0.09,Rainwise IP-100,2013-01-16 06:42:00,
2013-01-16 01:47:00,34.7,35.0,29.86,East,90,0.0,-999.0,100,0.06,,,0.09,Rainwise IP-100,2013-01-16 06:47:00,
2013-01-16 01:52:00,34.7,35.0,29.86,East,90,0.0,-999.0,100,0.06,,,0.10,Rainwise IP-100,2013-01-16 06:52:00,
2013-01-16 01:57:00,34.7,35.0,29.87,East,90,0.0,-999.0,100,0.06,,,0.10,Rainwise IP-100,2013-01-16 06:57:00,
2013-01-16 02:02:00,34.7,35.0,29.88,SSW,202,2.6,-999.0,100,0.06,,,0.11,Rainwise IP-100,2013-01-16 07:02:00,
2013-01-16 02:07:00,34.8,35.0,29.88,SSW,202,0.0,-999.0,100,0.06,,,0.11,Rainwise IP-100,2013-01-16 07:07:00,
2013-01-16 02:12:00,34.8,35.0,29.88,SSW,202,0.0,-999.0,100,0.06,,,0.12,Rainwise IP-100,2013-01-16 07:12:00,
2013-01-16 02:17:00,34.7,35.0,29.88,SSW,202,1.6,-999.0,100,0.06,,,0.12,Rainwise IP-100,2013-01-16 07:17:00,
2013-01-16 02:22:00,34.7,35.0,29.88,SSW,202,1.9,-999.0,100,0.06,,,0.13,Rainwise IP-100,2013-01-16 07:22:00,
2013-01-16 02:27:00,34.8,35.0,29.89,SSW,202,0.0,-999.0,100,0.06,,,0.13,Rainwise IP-100,2013-01-16 07:27:00,
2013-01-16 02:32:00,34.8,35.0,29.89,SSW,202,1.6,-999.0,100,0.06,,,0.14,Rainwise IP-100,2013-01-16 07:32:00,
2013-01-16 02:38:00,34.7,35.0,29.88,SSW,202,0.0,-999.0,100,0.12,,,0.15,Rainwise IP-100,2013-01-16 07:38:00,
2013-01-16 02:43:00,34.7,35.0,29.88,SSW,202,0.0,-999.0,100,0.06,,,0.15,Rainwise IP-100,2013-01-16 07:43:00,
2013-01-16 02:48:00,34.7,35.0,29.88,SSW,202,0.0,-999.0,100,0.06,,,0.16,Rainwise IP-100,2013-01-16 07:48:00,
2013-01-16 02:53:00,34.7,35.0,29.88,SSW,202,0.0,-999.0,100,0.06,,,0.16,Rainwise IP-100,2013-01-16 07:53:00,
2013-01-16 02:58:00,34.7,35.0,29.88,SSW,202,0.0,-999.0,100,0.00,,,0.16,Rainwise IP-100,2013-01-16 07:58:00,
2013-01-16 03:03:00,34.7,35.0,29.87,SSW,202,0.0,-999.0,100,0.00,,,0.16,Rainwise IP-100,2013-01-16 08:03:00,
2013-01-16 03:08:00,34.6,35.0,29.86,SSW,202,0.0,-999.0,100,0.00,,,0.16,Rainwise IP-100,2013-01-16 08:08:00,
2013-01-16 03:13:00,34.6,35.0,29.86,SSW,202,0.0,-999.0,100,0.00,,,0.16,Rainwise IP-100,2013-01-16 08:13:00,
2013-01-16 03:18:00,34.5,35.0,29.85,SSW,202,0.0,-999.0,100,0.00,,,0.16,Rainwise IP-100,2013-01-16 08:18:00,
2013-01-16 03:23:00,34.5,35.0,29.84,SSW,202,0.0,-999.0,100,0.06,,,0.17,Rainwise IP-100,2013-01-16 08:23:00,
2013-01-16 03:28:00,34.5,35.0,29.84,SSW,202,0.0,-999.0,100,0.06,,,0.17,Rainwise IP-100,2013-01-16 08:28:00,
2013-01-16 03:33:00,34.5,35.0,29.84,SSW,202,0.0,-999.0,100,0.00,,,0.17,Rainwise IP-100,2013-01-16 08:33:00,
2013-01-16 03:39:00,34.5,35.0,29.84,SSW,202,0.0,-999.0,100,0.00,,,0.17,Rainwise IP-100,2013-01-16 08:39:00,
2013-01-16 03:44:00,34.5,35.0,29.84,SSW,202,0.0,-999.0,100,0.00,,,0.17,Rainwise IP-100,2013-01-16 08:44:00,
2013-01-16 03:49:00,34.5,35.0,29.84,SSW,202,0.0,-999.0,100,0.00,,,0.17,Rainwise IP-100,2013-01-16 08:49:00,
2013-01-16 03:54:00,34.5,35.0,29.83,SSW,202,0.0,-999.0,100,0.00,,,0.17,Rainwise IP-100,2013-01-16 08:54:00,
2013-01-16 03:59:00,34.6,35.0,29.83,SSW,202,0.0,-999.0,100,0.00,,,0.17,Rainwise IP-100,2013-01-16 08:59:00,
2013-01-16 04:04:00,34.6,35.0,29.82,SSW,202,0.0,-999.0,100,0.00,,,0.17,Rainwise IP-100,2013-01-16 09:04:00,
2013-01-16 04:09:00,34.5,35.0,29.81,SSW,202,0.0,-999.0,100,0.00,,,0.17,Rainwise IP-100,2013-01-16 09:09:00,
2013-01-16 04:14:00,34.6,35.0,29.82,SSW,202,0.0,-999.0,100,0.00,,,0.17,Rainwise IP-100,2013-01-16 09:14:00,
2013-01-16 04:20:00,34.6,35.0,29.81,SSW,202,0.0,-999.0,100,0.00,,,0.17,Rainwise IP-100,2013-01-16 09:20:00,
2013-01-16 04:25:00,34.6,35.0,29.82,SSW,202,0.0,-999.0,100,0.00,,,0.17,Rainwise IP-100,2013-01-16 09:25:00,
2013-01-16 04:30:00,34.7,35.0,29.79,NE,45,0.0,-999.0,100,0.00,,,0.17,Rainwise IP-100,2013-01-16 09:30:00,
2013-01-16 04:35:00,34.7,35.0,29.79,NE,45,0.0,-999.0,100,0.00,,,0.17,Rainwise IP-100,2013-01-16 09:35:00,
2013-01-16 04:40:00,34.7,35.0,29.79,NE,45,0.0,-999.0,100,0.00,,,0.17,Rainwise IP-100,2013-01-16 09:40:00,
2013-01-16 04:45:00,34.7,35.0,29.77,NE,45,0.0,-999.0,100,0.00,,,0.17,Rainwise IP-100,2013-01-16 09:45:00,
2013-01-16 04:50:00,34.7,35.0,29.78,NE,45,0.0,-999.0,100,0.00,,,0.17,Rainwise IP-100,2013-01-16 09:50:00,
2013-01-16 04:55:00,34.7,35.0,29.77,NE,45,0.0,-999.0,100,0.00,,,0.17,Rainwise IP-100,2013-01-16 09:55:00,
2013-01-16 05:00:00,34.7,35.0,29.77,ENE,67,0.0,-999.0,100,0.00,,,0.17,Rainwise IP-100,2013-01-16 10:00:00,
2013-01-16 05:05:00,34.8,35.0,29.77,ENE,67,0.0,-999.0,100,0.00,,,0.17,Rainwise IP-100,2013-01-16 10:05:00,
2013-01-16 05:10:00,34.7,35.0,29.78,ENE,67,0.0,-999.0,100,0.00,,,0.17,Rainwise IP-100,2013-01-16 10:10:00,
2013-01-16 05:16:00,34.7,35.0,29.78,ENE,67,0.0,-999.0,100,0.00,,,0.17,Rainwise IP-100,2013-01-16 10:16:00,
2013-01-16 05:21:00,34.7,35.0,29.78,ENE,67,0.0,-999.0,100,0.00,,,0.17,Rainwise IP-100,2013-01-16 10:21:00,
2013-01-16 05:26:00,34.8,35.0,29.79,ENE,67,0.0,-999.0,100,0.00,,,0.17,Rainwise IP-100,2013-01-16 10:26:00,
2013-01-16 05:31:00,34.8,35.0,29.78,ENE,67,0.0,-999.0,100,0.00,,,0.17,Rainwise IP-100,2013-01-16 10:31:00,
2013-01-16 05:36:00,34.8,35.0,29.79,ENE,67,0.0,-999.0,100,0.00,,,0.17,Rainwise IP-100,2013-01-16 10:36:00,
2013-01-16 05:41:00,34.8,35.0,29.80,ENE,67,0.0,-999.0,100,0.00,,,0.17,Rainwise IP-100,2013-01-16 10:41:00,
2013-01-16 05:46:00,34.9,35.0,29.80,ESE,112,0.0,-999.0,100,0.00,,,0.17,Rainwise IP-100,2013-01-16 10:46:00,
2013-01-16 05:51:00,35.0,35.0,29.80,ESE,112,0.0,-999.0,100,0.00,,,0.17,Rainwise IP-100,2013-01-16 10:51:00,
2013-01-16 05:56:00,35.0,35.0,29.81,ESE,112,0.0,-999.0,100,0.00,,,0.17,Rainwise IP-100,2013-01-16 10:56:00,
2013-01-16 06:01:00,35.0,35.0,29.81,South,180,0.0,-999.0,100,0.00,,,0.18,Rainwise IP-100,2013-01-16 11:01:00,
2013-01-16 06:06:00,35.1,35.0,29.81,South,180,0.0,-999.0,100,0.06,,,0.18,Rainwise IP-100,2013-01-16 11:06:00,
2013-01-16 06:11:00,35.1,35.0,29.80,South,180,0.0,-999.0,100,0.06,,,0.18,Rainwise IP-100,2013-01-16 11:11:00,
2013-01-16 06:17:00,35.2,35.0,29.80,South,180,0.0,-999.0,100,0.00,,,0.18,Rainwise IP-100,2013-01-16 11:17:00,
2013-01-16 06:22:00,35.2,35.0,29.80,South,180,0.0,-999.0,100,0.00,,,0.18,Rainwise IP-100,2013-01-16 11:22:00,
2013-01-16 06:27:00,35.2,35.0,29.80,South,180,0.0,-999.0,100,0.00,,,0.18,Rainwise IP-100,2013-01-16 11:27:00,
2013-01-16 06:32:00,35.2,35.0,29.80,SSW,202,0.0,-999.0,100,0.00,,,0.18,Rainwise IP-100,2013-01-16 11:32:00,
2013-01-16 06:37:00,35.2,35.0,29.81,SSW,202,0.0,-999.0,100,0.00,,,0.18,Rainwise IP-100,2013-01-16 11:37:00,
2013-01-16 06:42:00,35.2,35.0,29.81,SSW,202,0.0,-999.0,100,0.00,,,0.18,Rainwise IP-100,2013-01-16 11:42:00,
2013-01-16 06:47:00,35.2,35.0,29.80,SSW,202,0.0,-999.0,100,0.00,,,0.18,Rainwise IP-100,2013-01-16 11:47:00,
2013-01-16 06:52:00,35.2,35.0,29.79,South,180,0.0,-999.0,100,0.00,,,0.18,Rainwise IP-100,2013-01-16 11:52:00,
2013-01-16 06:57:00,35.1,35.0,29.78,South,180,0.0,-999.0,100,0.00,,,0.18,Rainwise IP-100,2013-01-16 11:57:00,
2013-01-16 07:02:00,35.1,35.0,29.78,South,180,0.0,-999.0,100,0.00,,,0.18,Rainwise IP-100,2013-01-16 12:02:00,
2013-01-16 07:07:00,35.0,35.0,29.78,South,180,0.0,-999.0,100,0.00,,,0.18,Rainwise IP-100,2013-01-16 12:07:00,
2013-01-16 07:12:00,35.0,35.0,29.78,South,180,0.0,-999.0,100,0.00,,,0.18,Rainwise IP-100,2013-01-16 12:12:00,
2013-01-16 07:18:00,35.0,35.0,29.78,South,180,0.0,-999.0,100,0.00,,,0.18,Rainwise IP-100,2013-01-16 12:18:00,
2013-01-16 07:23:00,35.0,35.0,29.79,South,180,0.0,-999.0,100,0.00,,,0.18,Rainwise IP-100,2013-01-16 12:23:00,
2013-01-16 07:28:00,35.0,35.0,29.79,South,180,0.0,-999.0,100,0.00,,,0.18,Rainwise IP-100,2013-01-16 12:28:00,
2013-01-16 07:33:00,35.1,35.0,29.78,South,180,0.0,-999.0,100,0.00,,,0.18,Rainwise IP-100,2013-01-16 12:33:00,
2013-01-16 07:38:00,35.1,35.0,29.78,South,180,0.0,-999.0,100,0.00,,,0.18,Rainwise IP-100,2013-01-16 12:38:00,
2013-01-16 07:43:00,35.1,35.0,29.78,South,180,0.0,-999.0,100,0.00,,,0.18,Rainwise IP-100,2013-01-16 12:43:00,
2013-01-16 07:48:00,35.2,35.0,29.77,South,180,0.0,-999.0,100,0.00,,,0.18,Rainwise IP-100,2013-01-16 12:48:00,
2013-01-16 07:53:00,35.2,35.0,29.76,South,180,0.0,-999.0,100,0.06,,,0.19,Rainwise IP-100,2013-01-16 12:53:00,
2013-01-16 07:58:00,35.2,35.0,29.76,South,180,0.0,-999.0,100,0.06,,,0.19,Rainwise IP-100,2013-01-16 12:58:00,
2013-01-16 08:03:00,35.2,35.0,29.78,South,180,0.0,-999.0,100,0.00,,,0.19,Rainwise IP-100,2013-01-16 13:03:00,
2013-01-16 08:08:00,35.2,35.0,29.77,South,180,0.0,-999.0,100,0.00,,,0.19,Rainwise IP-100,2013-01-16 13:08:00,
2013-01-16 08:13:00,35.2,35.0,29.77,South,180,0.0,-999.0,100,0.00,,,0.19,Rainwise IP-100,2013-01-16 13:13:00,
2013-01-16 08:19:00,35.3,35.0,29.76,South,180,0.0,-999.0,100,0.00,,,0.19,Rainwise IP-100,2013-01-16 13:19:00,
2013-01-16 08:24:00,35.3,35.0,29.78,South,180,0.0,-999.0,100,0.06,,,0.20,Rainwise IP-100,2013-01-16 13:24:00,
2013-01-16 08:29:00,35.3,35.0,29.77,South,180,0.0,-999.0,100,0.06,,,0.20,Rainwise IP-100,2013-01-16 13:29:00,
2013-01-16 08:34:00,35.5,36.0,29.79,South,180,0.0,-999.0,100,0.00,,,0.20,Rainwise IP-100,2013-01-16 13:34:00,
2013-01-16 08:39:00,35.6,36.0,29.79,South,180,0.0,-999.0,100,0.00,,,0.20,Rainwise IP-100,2013-01-16 13:39:00,
2013-01-16 08:44:00,35.7,36.0,29.79,South,180,0.0,-999.0,100,0.06,,,0.21,Rainwise IP-100,2013-01-16 13:44:00,
2013-01-16 08:49:00,35.8,36.0,29.80,South,180,0.0,-999.0,100,0.06,,,0.21,Rainwise IP-100,2013-01-16 13:49:00,
2013-01-16 08:54:00,35.8,36.0,29.79,South,180,0.0,-999.0,100,0.00,,,0.21,Rainwise IP-100,2013-01-16 13:54:00,
2013-01-16 08:59:00,35.9,36.0,29.79,South,180,0.0,-999.0,100,0.06,,,0.22,Rainwise IP-100,2013-01-16 13:59:00,
2013-01-16 09:04:00,36.0,36.0,29.78,South,180,0.0,-999.0,100,0.06,,,0.22,Rainwise IP-100,2013-01-16 14:04:00,
2013-01-16 09:09:00,36.0,36.0,29.79,South,180,0.0,-999.0,100,0.06,,,0.23,Rainwise IP-100,2013-01-16 14:09:00,
2013-01-16 09:14:00,36.1,36.0,29.78,South,180,0.0,-999.0,100,0.06,,,0.23,Rainwise IP-100,2013-01-16 14:14:00,
2013-01-16 09:20:00,36.2,36.0,29.78,South,180,0.0,-999.0,100,0.06,,,0.24,Rainwise IP-100,2013-01-16 14:20:00,
2013-01-16 09:25:00,36.3,36.0,29.78,South,180,0.0,-999.0,100,0.06,,,0.24,Rainwise IP-100,2013-01-16 14:25:00,
2013-01-16 09:30:00,36.5,37.0,29.79,South,180,0.0,-999.0,100,0.00,,,0.24,Rainwise IP-100,2013-01-16 14:30:00,
2013-01-16 09:35:00,36.6,37.0,29.78,South,180,0.0,-999.0,100,0.00,,,0.24,Rainwise IP-100,2013-01-16 14:35:00,
2013-01-16 09:40:00,36.8,37.0,29.78,South,180,0.0,-999.0,100,0.00,,,0.24,Rainwise IP-100,2013-01-16 14:40:00,
2013-01-16 09:45:00,36.9,37.0,29.77,South,180,0.0,-999.0,100,0.06,,,0.25,Rainwise IP-100,2013-01-16 14:45:00,
2013-01-16 09:50:00,37.0,37.0,29.78,South,180,0.0,-999.0,100,0.06,,,0.25,Rainwise IP-100,2013-01-16 14:50:00,
2013-01-16 09:55:00,37.0,37.0,29.77,South,180,0.0,-999.0,100,0.00,,,0.25,Rainwise IP-100,2013-01-16 14:55:00,
2013-01-16 10:00:00,37.1,37.0,29.77,East,90,0.0,-999.0,100,0.00,,,0.25,Rainwise IP-100,2013-01-16 15:00:00,
2013-01-16 10:05:00,37.1,37.0,29.76,ESE,112,0.0,-999.0,100,0.00,,,0.25,Rainwise IP-100,2013-01-16 15:05:00,
2013-01-16 10:10:00,37.2,37.0,29.76,ESE,112,0.0,-999.0,100,0.00,,,0.25,Rainwise IP-100,2013-01-16 15:10:00,
2013-01-16 10:15:00,37.2,37.0,29.75,North,360,0.0,-999.0,100,0.00,,,0.25,Rainwise IP-100,2013-01-16 15:15:00,
2013-01-16 10:21:00,37.3,37.0,29.77,North,360,0.0,-999.0,100,0.00,,,0.25,Rainwise IP-100,2013-01-16 15:21:00,
2013-01-16 10:26:00,37.4,37.0,29.78,North,360,0.0,-999.0,100,0.00,,,0.25,Rainwise IP-100,2013-01-16 15:26:00,
2013-01-16 10:31:00,37.5,38.0,29.78,North,360,0.0,-999.0,100,0.00,,,0.25,Rainwise IP-100,2013-01-16 15:31:00,
2013-01-16 10:36:00,37.7,38.0,29.77,North,360,0.0,-999.0,100,0.00,,,0.25,Rainwise IP-100,2013-01-16 15:36:00,
2013-01-16 10:41:00,37.8,38.0,29.76,North,360,0.0,-999.0,100,0.00,,,0.25,Rainwise IP-100,2013-01-16 15:41:00,
2013-01-16 10:46:00,38.1,38.0,29.77,North,360,0.0,-999.0,100,0.00,,,0.25,Rainwise IP-100,2013-01-16 15:46:00,
2013-01-16 10:51:00,38.3,38.0,29.76,North,360,0.0,-999.0,100,0.00,,,0.25,Rainwise IP-100,2013-01-16 15:51:00,
2013-01-16 10:56:00,38.5,39.0,29.75,North,360,0.0,-999.0,100,0.00,,,0.25,Rainwise IP-100,2013-01-16 15:56:00,
2013-01-16 11:01:00,38.6,39.0,29.76,NNW,337,0.0,-999.0,100,0.00,,,0.25,Rainwise IP-100,2013-01-16 16:01:00,
2013-01-16 11:06:00,38.5,39.0,29.75,NNW,337,0.0,-999.0,100,0.00,,,0.25,Rainwise IP-100,2013-01-16 16:06:00,
2013-01-16 11:11:00,38.5,39.0,29.73,NNE,22,0.0,-999.0,100,0.00,,,0.25,Rainwise IP-100,2013-01-16 16:11:00,
2013-01-16 11:16:00,38.6,39.0,29.73,NNE,22,0.0,-999.0,100,0.00,,,0.25,Rainwise IP-100,2013-01-16 16:16:00,
2013-01-16 11:22:00,38.5,39.0,29.72,NNE,22,0.0,-999.0,100,0.00,,,0.25,Rainwise IP-100,2013-01-16 16:22:00,
2013-01-16 11:27:00,38.5,39.0,29.71,NNE,22,0.0,-999.0,100,0.00,,,0.25,Rainwise IP-100,2013-01-16 16:27:00,
2013-01-16 11:32:00,38.5,39.0,29.71,NNE,22,0.0,-999.0,100,0.00,,,0.25,Rainwise IP-100,2013-01-16 16:32:00,
2013-01-16 11:37:00,38.5,39.0,29.70,NW,315,0.0,-999.0,100,0.00,,,0.25,Rainwise IP-100,2013-01-16 16:37:00,
2013-01-16 11:42:00,38.6,39.0,29.68,NW,315,0.0,-999.0,100,0.00,,,0.25,Rainwise IP-100,2013-01-16 16:42:00,
2013-01-16 11:47:00,38.7,39.0,29.66,NNE,22,0.0,-999.0,100,0.06,,,0.26,Rainwise IP-100,2013-01-16 16:47:00,
2013-01-16 11:52:00,38.8,39.0,29.66,NNE,22,0.0,-999.0,100,0.06,,,0.26,Rainwise IP-100,2013-01-16 16:52:00,
2013-01-16 11:57:00,39.0,39.0,29.65,NNE,22,0.0,-999.0,100,0.00,,,0.26,Rainwise IP-100,2013-01-16 16:57:00,
2013-01-16 12:02:00,39.1,39.0,29.64,NNW,337,0.0,-999.0,100,0.00,,,0.26,Rainwise IP-100,2013-01-16 17:02:00,
2013-01-16 12:07:00,39.0,39.0,29.64,NW,315,2.1,-999.0,100,0.00,,,0.26,Rainwise IP-100,2013-01-16 17:07:00,
2013-01-16 12:12:00,38.8,39.0,29.62,NNE,22,1.6,-999.0,100,0.00,,,0.26,Rainwise IP-100,2013-01-16 17:12:00,
2013-01-16 12:17:00,38.7,39.0,29.61,SSW,202,0.0,-999.0,100,0.00,,,0.26,Rainwise IP-100,2013-01-16 17:17:00,
2013-01-16 12:23:00,38.7,39.0,29.61,North,360,0.0,-999.0,100,0.00,,,0.26,Rainwise IP-100,2013-01-16 17:23:00,
2013-01-16 12:28:00,38.6,39.0,29.61,West,270,0.0,-999.0,100,0.00,,,0.26,Rainwise IP-100,2013-01-16 17:28:00,
2013-01-16 12:33:00,38.6,39.0,29.61,WNW,292,0.0,-999.0,100,0.00,,,0.26,Rainwise IP-100,2013-01-16 17:33:00,
2013-01-16 12:38:00,38.7,39.0,29.61,NNW,337,0.0,-999.0,100,0.00,,,0.26,Rainwise IP-100,2013-01-16 17:38:00,
2013-01-16 12:43:00,38.6,39.0,29.60,NNE,22,0.0,-999.0,100,0.00,,,0.26,Rainwise IP-100,2013-01-16 17:43:00,
2013-01-16 12:48:00,38.6,39.0,29.61,West,270,0.0,-999.0,100,0.00,,,0.26,Rainwise IP-100,2013-01-16 17:48:00,
2013-01-16 12:53:00,38.6,39.0,29.60,North,360,0.0,-999.0,100,0.00,,,0.26,Rainwise IP-100,2013-01-16 17:53:00,
2013-01-16 12:58:00,38.6,39.0,29.62,North,360,0.0,-999.0,100,0.00,,,0.26,Rainwise IP-100,2013-01-16 17:58:00,
2013-01-16 13:03:00,38.6,39.0,29.62,NE,45,0.0,-999.0,100,0.00,,,0.26,Rainwise IP-100,2013-01-16 18:03:00,
2013-01-16 13:08:00,38.8,39.0,29.63,SSW,202,0.0,-999.0,100,0.00,,,0.26,Rainwise IP-100,2013-01-16 18:08:00,
2013-01-16 13:13:00,38.9,39.0,29.62,SSW,202,0.0,-999.0,100,0.00,,,0.26,Rainwise IP-100,2013-01-16 18:13:00,
2013-01-16 13:18:00,39.0,39.0,29.61,NNE,22,0.0,-999.0,100,0.00,,,0.26,Rainwise IP-100,2013-01-16 18:18:00,
2013-01-16 13:24:00,39.0,39.0,29.59,NNE,22,0.0,-999.0,100,0.00,,,0.26,Rainwise IP-100,2013-01-16 18:24:00,
2013-01-16 13:29:00,39.0,39.0,29.61,NNW,337,0.0,-999.0,100,0.00,,,0.26,Rainwise IP-100,2013-01-16 18:29:00,
2013-01-16 13:34:00,39.0,39.0,29.66,SSW,202,2.1,-999.0,100,0.00,,,0.26,Rainwise IP-100,2013-01-16 18:34:00,
2013-01-16 13:39:00,39.1,39.0,29.65,SSW,202,0.0,-999.0,100,0.00,,,0.26,Rainwise IP-100,2013-01-16 18:39:00,
2013-01-16 13:44:00,39.1,39.0,29.63,NE,45,0.0,-999.0,100,0.00,,,0.26,Rainwise IP-100,2013-01-16 18:44:00,
2013-01-16 13:49:00,39.2,39.0,29.63,NE,45,0.0,-999.0,100,0.00,,,0.26,Rainwise IP-100,2013-01-16 18:49:00,
2013-01-16 13:54:00,39.2,39.0,29.63,NE,45,0.0,-999.0,100,0.00,,,0.26,Rainwise IP-100,2013-01-16 18:54:00,
2013-01-16 13:59:00,39.2,39.0,29.65,SW,225,0.0,-999.0,100,0.00,,,0.26,Rainwise IP-100,2013-01-16 18:59:00,
2013-01-16 14:04:00,39.2,39.0,29.61,NNE,22,1.4,-999.0,100,0.00,,,0.26,Rainwise IP-100,2013-01-16 19:04:00,
2013-01-16 14:09:00,39.3,39.0,29.62,SSW,202,4.4,-999.0,100,0.00,,,0.26,Rainwise IP-100,2013-01-16 19:09:00,
2013-01-16 14:14:00,39.5,40.0,29.65,SSW,202,0.0,-999.0,100,0.00,,,0.26,Rainwise IP-100,2013-01-16 19:14:00,
2013-01-16 14:20:00,39.6,40.0,29.62,NE,45,0.0,-999.0,100,0.00,,,0.26,Rainwise IP-100,2013-01-16 19:20:00,
2013-01-16 14:25:00,39.6,40.0,29.65,SSW,202,0.0,-999.0,100,0.00,,,0.26,Rainwise IP-100,2013-01-16 19:25:00,
2013-01-16 14:30:00,39.6,40.0,29.68,SSW,202,1.6,-999.0,100,0.00,,,0.26,Rainwise IP-100,2013-01-16 19:30:00,
2013-01-16 14:35:00,39.7,40.0,29.69,SSW,202,0.0,-999.0,100,0.00,,,0.26,Rainwise IP-100,2013-01-16 19:35:00,
2013-01-16 14:40:00,39.7,40.0,29.66,SSW,202,0.0,-999.0,100,0.00,,,0.26,Rainwise IP-100,2013-01-16 19:40:00,
2013-01-16 14:45:00,39.7,40.0,29.67,SSW,202,0.0,-999.0,100,0.00,,,0.26,Rainwise IP-100,2013-01-16 19:45:00,
2013-01-16 14:50:00,39.7,40.0,29.67,SSW,202,0.0,-999.0,100,0.00,,,0.26,Rainwise IP-100,2013-01-16 19:50:00,
2013-01-16 14:55:00,39.7,40.0,29.68,SSW,202,2.6,-999.0,100,0.00,,,0.26,Rainwise IP-100,2013-01-16 19:55:00,
2013-01-16 15:00:00,39.6,40.0,29.68,South,180,1.2,-999.0,100,0.00,,,0.26,Rainwise IP-100,2013-01-16 20:00:00,
2013-01-16 15:05:00,39.6,40.0,29.68,South,180,0.0,-999.0,100,0.00,,,0.26,Rainwise IP-100,2013-01-16 20:05:00,
2013-01-16 15:10:00,39.7,40.0,29.68,SSW,202,0.0,-999.0,100,0.00,,,0.26,Rainwise IP-100,2013-01-16 20:10:00,
2013-01-16 15:15:00,39.6,40.0,29.69,SSW,202,0.0,-999.0,100,0.00,,,0.26,Rainwise IP-100,2013-01-16 20:15:00,
2013-01-16 15:21:00,39.5,40.0,29.69,SSW,202,2.6,-999.0,100,0.00,,,0.26,Rainwise IP-100,2013-01-16 20:21:00,
2013-01-16 15:26:00,39.4,39.0,29.68,ENE,67,0.0,-999.0,100,0.00,,,0.26,Rainwise IP-100,2013-01-16 20:26:00,
2013-01-16 15:31:00,39.3,39.0,29.68,ENE,67,0.0,-999.0,100,0.00,,,0.26,Rainwise IP-100,2013-01-16 20:31:00,
2013-01-16 15:36:00,39.3,39.0,29.69,South,180,0.0,-999.0,100,0.00,,,0.26,Rainwise IP-100,2013-01-16 20:36:00,
2013-01-16 15:41:00,39.3,39.0,29.68,South,180,0.0,-999.0,100,0.00,,,0.26,Rainwise IP-100,2013-01-16 20:41:00,
2013-01-16 15:46:00,39.3,39.0,29.67,South,180,0.0,-999.0,100,0.00,,,0.26,Rainwise IP-100,2013-01-16 20:46:00,
2013-01-16 15:51:00,39.3,39.0,29.68,South,180,0.0,-999.0,100,0.00,,,0.26,Rainwise IP-100,2013-01-16 20:51:00,
2013-01-16 15:56:00,39.3,39.0,29.69,South,180,0.0,-999.0,100,0.00,,,0.26,Rainwise IP-100,2013-01-16 20:56:00,
2013-01-16 16:01:00,39.3,39.0,29.67,South,180,0.0,-999.0,100,0.00,,,0.26,Rainwise IP-100,2013-01-16 21:01:00,
2013-01-16 16:06:00,39.4,39.0,29.68,South,180,0.0,-999.0,100,0.00,,,0.26,Rainwise IP-100,2013-01-16 21:06:00,
2013-01-16 16:11:00,39.5,40.0,29.68,South,180,0.0,-999.0,100,0.00,,,0.26,Rainwise IP-100,2013-01-16 21:11:00,
2013-01-16 16:16:00,39.5,40.0,29.69,South,180,0.0,-999.0,100,0.00,,,0.26,Rainwise IP-100,2013-01-16 21:16:00,
2013-01-16 16:22:00,39.6,40.0,29.68,South,180,0.0,-999.0,100,0.00,,,0.26,Rainwise IP-100,2013-01-16 21:22:00,
2013-01-16 16:27:00,39.6,40.0,29.69,South,180,0.0,-999.0,100,0.00,,,0.26,Rainwise IP-100,2013-01-16 21:27:00,
2013-01-16 16:32:00,39.6,40.0,29.69,South,180,0.0,-999.0,100,0.00,,,0.26,Rainwise IP-100,2013-01-16 21:32:00,
2013-01-16 16:37:00,39.7,40.0,29.69,South,180,0.0,-999.0,100,0.00,,,0.26,Rainwise IP-100,2013-01-16 21:37:00,
2013-01-16 16:42:00,39.7,40.0,29.69,South,180,0.0,-999.0,100,0.00,,,0.26,Rainwise IP-100,2013-01-16 21:42:00,
2013-01-16 16:47:00,39.7,40.0,29.69,South,180,0.0,-999.0,100,0.00,,,0.26,Rainwise IP-100,2013-01-16 21:47:00,
2013-01-16 16:52:00,39.7,40.0,29.69,South,180,0.0,-999.0,100,0.00,,,0.26,Rainwise IP-100,2013-01-16 21:52:00,
2013-01-16 16:57:00,39.7,40.0,29.69,South,180,0.0,-999.0,100,0.00,,,0.26,Rainwise IP-100,2013-01-16 21:57:00,
2013-01-16 17:02:00,39.7,40.0,29.69,South,180,0.0,-999.0,100,0.00,,,0.26,Rainwise IP-100,2013-01-16 22:02:00,
2013-01-16 17:07:00,39.7,40.0,29.69,South,180,0.0,-999.0,100,0.00,,,0.26,Rainwise IP-100,2013-01-16 22:07:00,
2013-01-16 17:12:00,39.7,40.0,29.69,South,180,0.0,-999.0,100,0.00,,,0.26,Rainwise IP-100,2013-01-16 22:12:00,
2013-01-16 17:17:00,39.7,40.0,29.70,South,180,0.0,-999.0,100,0.00,,,0.26,Rainwise IP-100,2013-01-16 22:17:00,
2013-01-16 17:23:00,39.7,40.0,29.70,South,180,0.0,-999.0,100,0.00,,,0.26,Rainwise IP-100,2013-01-16 22:23:00,
2013-01-16 17:28:00,39.8,40.0,29.72,South,180,0.0,-999.0,100,0.00,,,0.26,Rainwise IP-100,2013-01-16 22:28:00,
2013-01-16 17:33:00,39.9,40.0,29.69,South,180,0.0,-999.0,100,0.00,,,0.26,Rainwise IP-100,2013-01-16 22:33:00,
2013-01-16 17:38:00,40.0,40.0,29.71,South,180,0.0,-999.0,100,0.00,,,0.26,Rainwise IP-100,2013-01-16 22:38:00,
2013-01-16 17:43:00,40.0,40.0,29.70,South,180,0.0,-999.0,100,0.00,,,0.26,Rainwise IP-100,2013-01-16 22:43:00,
2013-01-16 17:48:00,40.0,40.0,29.72,South,180,0.0,-999.0,100,0.00,,,0.26,Rainwise IP-100,2013-01-16 22:48:00,
2013-01-16 17:53:00,40.0,40.0,29.71,South,180,0.0,-999.0,100,0.00,,,0.26,Rainwise IP-100,2013-01-16 22:53:00,
2013-01-16 17:58:00,40.0,40.0,29.72,South,180,0.0,-999.0,100,0.00,,,0.26,Rainwise IP-100,2013-01-16 22:58:00,
2013-01-16 18:03:00,40.0,40.0,29.72,South,180,0.0,-999.0,100,0.00,,,0.26,Rainwise IP-100,2013-01-16 23:03:00,
2013-01-16 18:08:00,40.0,40.0,29.72,South,180,0.0,-999.0,100,0.00,,,0.26,Rainwise IP-100,2013-01-16 23:08:00,
2013-01-16 18:13:00,40.0,40.0,29.72,South,180,0.0,-999.0,100,0.00,,,0.26,Rainwise IP-100,2013-01-16 23:13:00,
2013-01-16 18:18:00,40.0,40.0,29.72,South,180,0.0,-999.0,100,0.00,,,0.26,Rainwise IP-100,2013-01-16 23:18:00,
2013-01-16 18:24:00,40.0,40.0,29.72,South,180,0.0,-999.0,100,0.00,,,0.26,Rainwise IP-100,2013-01-16 23:24:00,
2013-01-16 18:29:00,40.0,40.0,29.72,South,180,0.0,-999.0,100,0.00,,,0.26,Rainwise IP-100,2013-01-16 23:29:00,
2013-01-16 18:34:00,40.0,40.0,29.71,South,180,0.0,-999.0,100,0.00,,,0.26,Rainwise IP-100,2013-01-16 23:34:00,
2013-01-16 18:39:00,40.0,40.0,29.71,South,180,0.0,-999.0,100,0.00,,,0.26,Rainwise IP-100,2013-01-16 23:39:00,
2013-01-16 18:44:00,40.0,40.0,29.70,South,180,0.0,-999.0,100,0.00,,,0.26,Rainwise IP-100,2013-01-16 23:44:00,
2013-01-16 18:49:00,40.0,40.0,29.70,South,180,0.0,-999.0,100,0.00,,,0.26,Rainwise IP-100,2013-01-16 23:49:00,
2013-01-16 18:54:00,39.9,40.0,29.71,South,180,0.0,-999.0,100,0.00,,,0.26,Rainwise IP-100,2013-01-16 23:54:00,
2013-01-16 18:59:00,39.9,40.0,29.72,South,180,0.0,-999.0,100,0.00,,,0.26,Rainwise IP-100,2013-01-16 23:59:00,
2013-01-16 19:04:00,39.9,40.0,29.72,South,180,0.0,-999.0,100,0.00,,,0.26,Rainwise IP-100,2013-01-17 00:04:00,
2013-01-16 19:09:00,39.9,40.0,29.72,South,180,0.0,-999.0,100,0.00,,,0.26,Rainwise IP-100,2013-01-17 00:09:00,
2013-01-16 19:14:00,39.9,40.0,29.73,South,180,0.0,-999.0,100,0.00,,,0.26,Rainwise IP-100,2013-01-17 00:14:00,
2013-01-16 19:19:00,40.0,40.0,29.73,South,180,0.0,-999.0,100,0.00,,,0.26,Rainwise IP-100,2013-01-17 00:19:00,
2013-01-16 19:25:00,40.0,40.0,29.73,South,180,0.0,-999.0,100,0.00,,,0.26,Rainwise IP-100,2013-01-17 00:25:00,
2013-01-16 19:30:00,40.0,40.0,29.73,South,180,0.0,-999.0,100,0.00,,,0.26,Rainwise IP-100,2013-01-17 00:30:00,
2013-01-16 19:35:00,40.1,40.0,29.72,South,180,0.0,-999.0,100,0.00,,,0.26,Rainwise IP-100,2013-01-17 00:35:00,
2013-01-16 19:40:00,40.1,40.0,29.72,South,180,0.0,-999.0,100,0.00,,,0.26,Rainwise IP-100,2013-01-17 00:40:00,
2013-01-16 19:45:00,40.1,40.0,29.72,South,180,0.0,-999.0,100,0.00,,,0.26,Rainwise IP-100,2013-01-17 00:45:00,
2013-01-16 19:50:00,40.1,40.0,29.73,South,180,0.0,-999.0,100,0.00,,,0.26,Rainwise IP-100,2013-01-17 00:50:00,
2013-01-16 19:55:00,40.2,40.0,29.73,South,180,0.0,-999.0,100,0.00,,,0.26,Rainwise IP-100,2013-01-17 00:55:00,
2013-01-16 20:00:00,40.2,40.0,29.72,South,180,0.0,-999.0,100,0.00,,,0.26,Rainwise IP-100,2013-01-17 01:00:00,
2013-01-16 20:05:00,40.3,40.0,29.73,South,180,0.0,-999.0,100,0.00,,,0.26,Rainwise IP-100,2013-01-17 01:05:00,
2013-01-16 20:10:00,40.4,40.0,29.72,South,180,0.0,-999.0,100,0.00,,,0.26,Rainwise IP-100,2013-01-17 01:10:00,
2013-01-16 20:15:00,40.4,40.0,29.72,South,180,0.0,-999.0,100,0.00,,,0.26,Rainwise IP-100,2013-01-17 01:15:00,
2013-01-16 20:20:00,40.4,40.0,29.72,South,180,0.0,-999.0,100,0.00,,,0.26,Rainwise IP-100,2013-01-17 01:20:00,
2013-01-16 20:26:00,40.4,40.0,29.72,South,180,0.0,-999.0,100,0.00,,,0.26,Rainwise IP-100,2013-01-17 01:26:00,
2013-01-16 20:31:00,40.4,40.0,29.72,South,180,0.0,-999.0,100,0.00,,,0.26,Rainwise IP-100,2013-01-17 01:31:00,
2013-01-16 20:36:00,40.5,41.0,29.72,South,180,0.0,-999.0,100,0.00,,,0.26,Rainwise IP-100,2013-01-17 01:36:00,
2013-01-16 20:41:00,40.5,41.0,29.72,South,180,0.0,-999.0,100,0.00,,,0.26,Rainwise IP-100,2013-01-17 01:41:00,
2013-01-16 20:46:00,40.5,41.0,29.72,South,180,0.0,-999.0,100,0.00,,,0.26,Rainwise IP-100,2013-01-17 01:46:00,
2013-01-16 20:51:00,40.6,41.0,29.72,South,180,0.0,-999.0,100,0.00,,,0.26,Rainwise IP-100,2013-01-17 01:51:00,
2013-01-16 20:56:00,40.6,41.0,29.72,South,180,0.0,-999.0,100,0.00,,,0.26,Rainwise IP-100,2013-01-17 01:56:00,
2013-01-16 21:01:00,40.7,41.0,29.71,South,180,0.0,-999.0,100,0.00,,,0.26,Rainwise IP-100,2013-01-17 02:01:00,
2013-01-16 21:06:00,40.7,41.0,29.72,South,180,0.0,-999.0,100,0.00,,,0.26,Rainwise IP-100,2013-01-17 02:06:00,
2013-01-16 21:11:00,40.8,41.0,29.71,South,180,0.0,-999.0,100,0.00,,,0.26,Rainwise IP-100,2013-01-17 02:11:00,
2013-01-16 21:16:00,40.8,41.0,29.72,South,180,0.0,-999.0,100,0.00,,,0.26,Rainwise IP-100,2013-01-17 02:16:00,
2013-01-16 21:21:00,40.8,41.0,29.71,South,180,0.0,-999.0,100,0.00,,,0.26,Rainwise IP-100,2013-01-17 02:21:00,
2013-01-16 21:27:00,40.8,41.0,29.71,South,180,0.0,-999.0,100,0.00,,,0.26,Rainwise IP-100,2013-01-17 02:27:00,
2013-01-16 21:32:00,40.8,41.0,29.72,South,180,0.0,-999.0,100,0.00,,,0.26,Rainwise IP-100,2013-01-17 02:32:00,
2013-01-16 21:37:00,40.8,41.0,29.72,South,180,0.0,-999.0,100,0.00,,,0.26,Rainwise IP-100,2013-01-17 02:37:00,
2013-01-16 21:42:00,40.8,41.0,29.72,South,180,0.0,-999.0,100,0.00,,,0.26,Rainwise IP-100,2013-01-17 02:42:00,
2013-01-16 21:47:00,40.8,41.0,29.72,South,180,0.0,-999.0,100,0.00,,,0.26,Rainwise IP-100,2013-01-17 02:47:00,
2013-01-16 21:52:00,40.8,41.0,29.72,South,180,0.0,-999.0,100,0.00,,,0.26,Rainwise IP-100,2013-01-17 02:52:00,
2013-01-16 21:57:00,40.8,41.0,29.72,South,180,0.0,-999.0,100,0.00,,,0.26,Rainwise IP-100,2013-01-17 02:57:00,
2013-01-16 22:02:00,40.8,41.0,29.72,South,180,0.0,-999.0,100,0.00,,,0.26,Rainwise IP-100,2013-01-17 03:02:00,
2013-01-16 22:07:00,40.8,41.0,29.73,South,180,0.0,-999.0,100,0.00,,,0.26,Rainwise IP-100,2013-01-17 03:07:00,
2013-01-16 22:12:00,40.9,41.0,29.73,South,180,0.0,-999.0,100,0.00,,,0.26,Rainwise IP-100,2013-01-17 03:12:00,
2013-01-16 22:17:00,40.9,41.0,29.72,South,180,0.0,-999.0,100,0.00,,,0.26,Rainwise IP-100,2013-01-17 03:17:00,
2013-01-16 22:22:00,40.9,41.0,29.72,South,180,0.0,-999.0,100,0.00,,,0.26,Rainwise IP-100,2013-01-17 03:22:00,
2013-01-16 22:28:00,41.0,41.0,29.72,South,180,0.0,-999.0,100,0.00,,,0.26,Rainwise IP-100,2013-01-17 03:28:00,
2013-01-16 22:33:00,40.9,41.0,29.71,South,180,0.0,-999.0,100,0.00,,,0.26,Rainwise IP-100,2013-01-17 03:33:00,
2013-01-16 22:38:00,40.9,41.0,29.72,South,180,0.0,-999.0,100,0.06,,,0.27,Rainwise IP-100,2013-01-17 03:38:00,
2013-01-16 22:43:00,40.9,41.0,29.71,South,180,0.0,-999.0,100,0.06,,,0.27,Rainwise IP-100,2013-01-17 03:43:00,
2013-01-16 22:48:00,40.9,41.0,29.71,South,180,0.0,-999.0,100,0.00,,,0.27,Rainwise IP-100,2013-01-17 03:48:00,
2013-01-16 22:53:00,41.0,41.0,29.71,South,180,0.0,-999.0,100,0.00,,,0.27,Rainwise IP-100,2013-01-17 03:53:00,
2013-01-16 22:58:00,41.0,41.0,29.72,South,180,0.0,-999.0,100,0.00,,,0.27,Rainwise IP-100,2013-01-17 03:58:00,
2013-01-16 23:03:00,40.9,41.0,29.72,South,180,0.0,-999.0,100,0.00,,,0.27,Rainwise IP-100,2013-01-17 04:03:00,
2013-01-16 23:08:00,40.9,41.0,29.73,South,180,0.0,-999.0,100,0.00,,,0.27,Rainwise IP-100,2013-01-17 04:08:00,
2013-01-16 23:13:00,41.0,41.0,29.73,South,180,0.0,-999.0,100,0.00,,,0.27,Rainwise IP-100,2013-01-17 04:13:00,
2013-01-16 23:18:00,41.0,41.0,29.72,South,180,0.0,-999.0,100,0.00,,,0.27,Rainwise IP-100,2013-01-17 04:18:00,
2013-01-16 23:23:00,41.0,41.0,29.72,South,180,0.0,-999.0,100,0.00,,,0.27,Rainwise IP-100,2013-01-17 04:23:00,
2013-01-16 23:29:00,41.0,41.0,29.71,South,180,0.0,-999.0,100,0.00,,,0.27,Rainwise IP-100,2013-01-17 04:29:00,
2013-01-16 23:34:00,41.0,41.0,29.72,South,180,0.0,-999.0,100,0.00,,,0.27,Rainwise IP-100,2013-01-17 04:34:00,
2013-01-16 23:39:00,41.0,41.0,29.72,South,180,0.0,-999.0,100,0.00,,,0.27,Rainwise IP-100,2013-01-17 04:39:00,
2013-01-16 23:44:00,41.0,41.0,29.71,South,180,0.0,-999.0,100,0.00,,,0.27,Rainwise IP-100,2013-01-17 04:44:00,
2013-01-16 23:49:00,41.0,41.0,29.72,South,180,0.0,-999.0,100,0.00,,,0.27,Rainwise IP-100,2013-01-17 04:49:00,
2013-01-16 23:54:00,41.0,41.0,29.71,South,180,0.0,-999.0,100,0.00,,,0.27,Rainwise IP-100,2013-01-17 04:54:00,
2013-01-16 23:59:00,41.0,41.0,29.71,South,180,0.0,-999.0,100,0.00,,,0.27,Rainwise IP-100,2013-01-17 04:59:00,